Japan Airlines Virtual Airport Information Service

Miami International Airport

ICAO: KMIA Country: United States
Latitude: 25.7932 Longitude: -80.2905
Latest Arrival : AAL527 (KBOS-KMIA) Latest Departure : JBU2886 (KMIA-KLAX)


WX CaptureLIVE
Data provided by noaa.gov | Fetched at 15:53:51

METAR : KMIA 041453Z 12007KT 10SM BKN041 24/17 A3015 RMK AO2 SLP210 T02440167 51015 $

TAF : KMIA 041458Z 0415/0518 VRB05KT P6SM BKN040 FM041700 11008KT P6SM SCT040 FM042300 VRB03KT P6SM FEW025 SCT050 FM051500 11008KT P6SM SCT035 SCT050


Runway Data for KMIA
Data provided by openaviationdata.com

Runway ID Mag Var Hdg Length Elevation Surface ILS Freq ILS Id ILS Slope
08L -5 92° 8595 ft 8 ft Concrete 109.3 IROY 0
08R -5 92° 10498 ft 8 ft Asphalt 110.3 IMFA 3
9 -5 92° 12994 ft 8 ft Concrete 110.9 IBUL 3
12 -5 124° 9357 ft 8 ft Concrete 108.9 IGEM 3
26L -5 272° 10498 ft 8 ft Asphalt 109.1 IVIN 3
26R -5 272° 8595 ft 8 ft Concrete 109.3 ICNV 0
27 -5 272° 12994 ft 8 ft Concrete 109.5 IMIA 3
30 -5 304° 9357 ft 8 ft Concrete 111.7 IDCX 3

Miami International Airport, United States
Use only for reference purposes



Not for navigational purposes.